IBE7221 GCXO-LEMD

Flight info

Callsign IBE7221
Flight time 2h 11m
Altitude 36000
Route VASTO UN858 AKUDA DCT GIMAL DCT PESAS DCT PARKA DCT SOTUK
Aircraft A320/M-SDE3FGHIRWY/LB1

Departure

Time 2026-05-08 17:29
Airport Tenerife Norte-Ciudad de La Laguna Airport (GCXO)

Arrival

Time 2026-05-08 19:40
Airport Adolfo Suárez Madrid–Barajas Airport (LEMD)
Time Latitude Longitude Altitude Speed Heading
2026-05-08 16:51 28.48698 -16.34736 2061 ft 0 kts 41°
2026-05-08 17:20 28.48680 -16.34753 2061 ft 4 kts 33°
2026-05-08 17:20 28.48657 -16.34769 2061 ft 4 kts 31°
2026-05-08 17:20 28.48634 -16.34786 2061 ft 4 kts 39°
2026-05-08 17:20 28.48615 -16.34807 2061 ft 4 kts 58°
2026-05-08 17:21 28.48607 -16.34833 2061 ft 4 kts 102°
2026-05-08 17:21 28.48609 -16.34840 2061 ft 0 kts 110°
2026-05-08 17:23 28.48600 -16.34812 2061 ft 9 kts 110°
2026-05-08 17:23 28.48580 -16.34751 2061 ft 7 kts 110°
2026-05-08 17:23 28.48563 -16.34698 2061 ft 11 kts 111°
2026-05-08 17:23 28.48532 -16.34608 2061 ft 11 kts 111°
2026-05-08 17:24 28.48506 -16.34531 2061 ft 10 kts 111°
2026-05-08 17:24 28.48470 -16.34420 2061 ft 18 kts 110°
2026-05-08 17:24 28.48428 -16.34293 2061 ft 16 kts 110°
2026-05-08 17:24 28.48390 -16.34181 2061 ft 15 kts 111°
2026-05-08 17:25 28.48345 -16.34043 2061 ft 19 kts 110°
2026-05-08 17:25 28.48300 -16.33908 2059 ft 18 kts 110°
2026-05-08 17:25 28.48256 -16.33776 2057 ft 17 kts 111°
2026-05-08 17:25 28.48212 -16.33644 2054 ft 19 kts 111°
2026-05-08 17:26 28.48162 -16.33494 2049 ft 23 kts 110°
2026-05-08 17:26 28.48105 -16.33322 2045 ft 23 kts 110°
2026-05-08 17:26 28.48047 -16.33148 2038 ft 24 kts 111°
2026-05-08 17:26 28.47988 -16.32968 2033 ft 25 kts 111°
2026-05-08 17:27 28.47926 -16.32782 2030 ft 25 kts 111°
2026-05-08 17:27 28.47871 -16.32622 2014 ft 22 kts 116°
2026-05-08 17:27 28.47760 -16.32551 2010 ft 18 kts 211°
2026-05-08 17:27 28.47768 -16.32656 2013 ft 13 kts 291°
2026-05-08 17:28 28.47828 -16.32833 2025 ft 51 kts 291°
2026-05-08 17:28 28.48034 -16.33451 2048 ft 117 kts 290°
2026-05-08 17:28 28.48393 -16.34533 2103 ft 170 kts 291°
2026-05-08 17:28 28.48889 -16.35831 2639 ft 190 kts 294°
2026-05-08 17:29 28.49529 -16.37254 3271 ft 213 kts 297°
2026-05-08 17:29 28.50248 -16.38782 3808 ft 227 kts 295°
2026-05-08 17:29 28.50949 -16.40543 3856 ft 267 kts 290°
2026-05-08 17:29 28.51569 -16.42578 4622 ft 269 kts 287°
2026-05-08 17:30 28.52127 -16.44553 5890 ft 257 kts 285°
2026-05-08 17:30 28.52689 -16.46474 6871 ft 257 kts 287°
2026-05-08 17:30 28.53286 -16.48405 7660 ft 259 kts 288°
2026-05-08 17:30 28.53912 -16.50339 8458 ft 261 kts 288°
2026-05-08 17:31 28.54702 -16.52206 9293 ft 265 kts 301°
2026-05-08 17:31 28.55978 -16.53748 10103 ft 273 kts 317°
2026-05-08 17:31 28.57704 -16.54826 10467 ft 300 kts 335°
2026-05-08 17:31 28.59883 -16.55182 10633 ft 336 kts 358°
2026-05-08 17:32 28.62220 -16.54470 11079 ft 362 kts 22°
2026-05-08 17:32 28.64231 -16.52730 11660 ft 379 kts 45°
2026-05-08 17:32 28.65581 -16.50105 12254 ft 393 kts 71°
2026-05-08 17:32 28.65900 -16.47012 12838 ft 399 kts 97°
2026-05-08 17:33 28.65103 -16.44012 13416 ft 396 kts 124°
2026-05-08 17:33 28.63362 -16.41651 13991 ft 388 kts 146°
2026-05-08 17:33 28.61285 -16.39674 14530 ft 391 kts 146°
2026-05-08 17:33 28.59279 -16.37541 15075 ft 401 kts 139°
2026-05-08 17:34 28.57582 -16.34963 15615 ft 413 kts 127°
2026-05-08 17:34 28.56156 -16.32105 16165 ft 421 kts 118°
2026-05-08 17:34 28.55221 -16.28886 16579 ft 435 kts 104°
2026-05-08 17:34 28.54877 -16.25457 17194 ft 440 kts 92°
2026-05-08 17:35 28.55043 -16.21975 17719 ft 443 kts 81°
2026-05-08 17:35 28.55704 -16.18545 18317 ft 446 kts 73°
2026-05-08 17:35 28.56504 -16.15116 18749 ft 450 kts 73°
2026-05-08 17:35 28.57317 -16.11660 19142 ft 454 kts 73°
2026-05-08 17:36 28.58143 -16.08180 19563 ft 458 kts 73°
2026-05-08 17:36 28.58980 -16.04667 20000 ft 462 kts 73°
2026-05-08 17:36 28.59826 -16.01124 20444 ft 466 kts 73°
2026-05-08 17:36 28.60677 -15.97543 20889 ft 470 kts 74°
2026-05-08 17:37 28.61531 -15.93943 21341 ft 473 kts 74°
2026-05-08 17:37 28.62389 -15.90311 21771 ft 477 kts 74°
2026-05-08 17:37 28.63256 -15.86644 22205 ft 481 kts 74°
2026-05-08 17:37 28.64127 -15.82958 22628 ft 485 kts 74°
2026-05-08 17:38 28.65003 -15.79241 23034 ft 489 kts 74°
2026-05-08 17:38 28.65886 -15.75480 23444 ft 493 kts 74°
2026-05-08 17:38 28.66773 -15.71706 23790 ft 496 kts 74°
2026-05-08 17:38 28.67670 -15.67893 24127 ft 499 kts 74°
2026-05-08 17:39 28.68568 -15.64062 24463 ft 502 kts 74°
2026-05-08 17:39 28.69468 -15.60210 24788 ft 505 kts 74°
2026-05-08 17:39 28.70370 -15.56344 25105 ft 508 kts 74°
2026-05-08 17:39 28.71283 -15.52438 25414 ft 510 kts 74°
2026-05-08 17:40 28.72198 -15.48523 25715 ft 513 kts 74°
2026-05-08 17:40 28.73115 -15.44590 26007 ft 516 kts 74°
2026-05-08 17:40 28.74036 -15.40625 26314 ft 518 kts 74°
2026-05-08 17:40 28.74961 -15.36645 26602 ft 521 kts 74°
2026-05-08 17:41 28.75890 -15.32649 26893 ft 523 kts 74°
2026-05-08 17:41 28.76824 -15.28628 27179 ft 526 kts 74°
2026-05-08 17:41 28.77759 -15.24591 27461 ft 528 kts 74°
2026-05-08 17:41 28.78695 -15.20531 27738 ft 531 kts 74°
2026-05-08 17:42 28.79620 -15.16507 28004 ft 533 kts 74°
2026-05-08 17:42 28.80575 -15.12347 28275 ft 536 kts 74°
2026-05-08 17:42 28.81504 -15.08310 28529 ft 538 kts 74°
2026-05-08 17:42 28.82460 -15.04142 28748 ft 541 kts 74°
2026-05-08 17:43 28.83409 -14.99989 28979 ft 544 kts 74°
2026-05-08 17:43 28.84366 -14.95803 29210 ft 546 kts 74°
2026-05-08 17:43 28.85474 -14.91656 29455 ft 546 kts 66°
2026-05-08 17:43 28.87060 -14.87732 29678 ft 544 kts 57°
2026-05-08 17:44 28.89105 -14.84124 29892 ft 540 kts 47°
2026-05-08 17:44 28.91544 -14.80903 30097 ft 534 kts 38°
2026-05-08 17:44 28.94316 -14.78126 30280 ft 526 kts 28°
2026-05-08 17:44 28.97315 -14.75777 30444 ft 523 kts 25°
2026-05-08 17:45 29.00353 -14.73486 30602 ft 524 kts 25°
2026-05-08 17:45 29.03399 -14.71181 30806 ft 526 kts 25°
2026-05-08 17:45 29.06456 -14.68862 30949 ft 528 kts 25°
2026-05-08 17:45 29.09520 -14.66534 31095 ft 530 kts 25°
2026-05-08 17:46 29.12593 -14.64196 31280 ft 530 kts 25°
2026-05-08 17:46 29.15656 -14.61864 31490 ft 529 kts 25°
2026-05-08 17:46 29.18717 -14.59532 31699 ft 529 kts 24°
2026-05-08 17:46 29.21780 -14.57199 31917 ft 528 kts 25°
2026-05-08 17:47 29.24836 -14.54872 32081 ft 529 kts 25°
2026-05-08 17:47 29.27912 -14.52529 32271 ft 529 kts 25°
2026-05-08 17:47 29.30978 -14.50191 32469 ft 529 kts 24°
2026-05-08 17:47 29.33004 -14.48645 32647 ft 530 kts 24°
2026-05-08 17:48 29.37109 -14.45509 32886 ft 530 kts 24°
2026-05-08 17:48 29.40171 -14.43165 33079 ft 530 kts 24°
2026-05-08 17:48 29.43244 -14.40809 33282 ft 530 kts 24°
2026-05-08 17:48 29.46308 -14.38462 33481 ft 530 kts 24°
2026-05-08 17:49 29.49374 -14.36114 33688 ft 529 kts 24°
2026-05-08 17:49 29.52431 -14.33771 33893 ft 529 kts 24°
2026-05-08 17:49 29.55493 -14.31423 34081 ft 528 kts 24°
2026-05-08 17:49 29.58543 -14.29083 34257 ft 528 kts 24°
2026-05-08 17:50 29.61597 -14.26735 34451 ft 527 kts 24°
2026-05-08 17:50 29.64603 -14.24420 34660 ft 527 kts 24°
2026-05-08 17:50 29.67647 -14.22077 34819 ft 527 kts 24°
2026-05-08 17:50 29.70700 -14.19725 34957 ft 528 kts 24°
2026-05-08 17:51 29.73746 -14.17377 35108 ft 528 kts 24°
2026-05-08 17:51 29.76802 -14.15023 35265 ft 527 kts 24°
2026-05-08 17:51 29.79846 -14.12673 35430 ft 527 kts 24°
2026-05-08 17:51 29.82883 -14.10326 35586 ft 526 kts 24°
2026-05-08 17:52 29.85915 -14.07983 35741 ft 525 kts 24°
2026-05-08 17:52 29.88945 -14.05640 35901 ft 524 kts 24°
2026-05-08 17:53 29.98010 -13.98616 35980 ft 522 kts 24°
2026-05-08 17:53 30.04028 -13.93941 35978 ft 521 kts 24°
2026-05-08 17:54 30.10046 -13.89266 35978 ft 521 kts 24°
2026-05-08 17:54 30.15046 -13.85375 35974 ft 522 kts 24°
2026-05-08 17:55 30.21109 -13.80648 35975 ft 523 kts 24°
2026-05-08 17:55 30.27116 -13.75970 35973 ft 524 kts 24°
2026-05-08 17:56 30.33161 -13.71249 35965 ft 524 kts 24°
2026-05-08 17:56 30.39205 -13.66510 35957 ft 525 kts 24°
2026-05-08 17:57 30.45259 -13.61754 35971 ft 526 kts 24°
2026-05-08 17:57 30.51314 -13.56993 35966 ft 526 kts 24°
2026-05-08 17:58 30.57373 -13.52200 35962 ft 528 kts 25°
2026-05-08 17:58 30.63431 -13.47366 35931 ft 529 kts 26°
2026-05-08 17:59 30.69508 -13.42509 35938 ft 530 kts 25°
2026-05-08 17:59 30.75590 -13.37654 35941 ft 531 kts 25°
2026-05-08 18:00 30.81682 -13.32784 35946 ft 531 kts 26°
2026-05-08 18:00 30.90847 -13.25434 35963 ft 535 kts 26°
2026-05-08 18:01 30.96977 -13.20527 35949 ft 535 kts 26°
2026-05-08 18:01 31.03131 -13.15653 35947 ft 535 kts 25°
2026-05-08 18:02 31.09292 -13.10776 35928 ft 535 kts 26°
2026-05-08 18:02 31.15408 -13.05905 35948 ft 538 kts 26°
2026-05-08 18:03 31.21614 -13.00933 35921 ft 538 kts 27°
2026-05-08 18:03 31.27789 -12.95980 35922 ft 539 kts 27°
2026-05-08 18:04 31.33939 -12.91055 35925 ft 540 kts 26°
2026-05-08 18:04 31.40134 -12.86090 35929 ft 540 kts 27°
2026-05-08 18:05 31.46330 -12.81109 35962 ft 541 kts 27°
2026-05-08 18:05 31.52541 -12.76101 35929 ft 542 kts 27°
2026-05-08 18:06 31.58755 -12.71084 35921 ft 543 kts 27°
2026-05-08 18:06 31.64985 -12.66062 35922 ft 543 kts 27°
2026-05-08 18:07 31.71210 -12.61029 35922 ft 544 kts 27°
2026-05-08 18:07 31.77443 -12.55983 35950 ft 545 kts 28°
2026-05-08 18:08 31.83680 -12.50914 35922 ft 545 kts 28°
2026-05-08 18:08 31.89919 -12.45838 35922 ft 545 kts 28°
2026-05-08 18:09 31.96152 -12.40760 35915 ft 545 kts 28°
2026-05-08 18:09 32.02391 -12.35672 35953 ft 546 kts 28°
2026-05-08 18:10 32.08652 -12.30574 35930 ft 546 kts 28°
2026-05-08 18:10 32.14902 -12.25482 35917 ft 547 kts 28°
2026-05-08 18:11 32.21162 -12.20369 35912 ft 548 kts 29°
2026-05-08 18:11 32.27424 -12.15243 35910 ft 548 kts 29°
2026-05-08 18:12 32.33690 -12.10103 35889 ft 547 kts 30°
2026-05-08 18:12 32.39923 -12.04973 35879 ft 546 kts 30°
2026-05-08 18:13 32.46169 -11.99841 35906 ft 549 kts 30°
2026-05-08 18:13 32.52459 -11.94662 35901 ft 550 kts 30°
2026-05-08 18:14 32.58738 -11.89486 35908 ft 550 kts 30°
2026-05-08 18:14 32.65004 -11.84300 35874 ft 548 kts 30°
2026-05-08 18:15 32.71258 -11.79114 35874 ft 548 kts 30°
2026-05-08 18:15 32.77516 -11.73924 35880 ft 549 kts 30°
2026-05-08 18:16 32.83774 -11.68723 35881 ft 550 kts 30°
2026-05-08 18:16 32.90000 -11.63533 35885 ft 550 kts 30°
2026-05-08 18:17 32.96265 -11.58308 35889 ft 550 kts 30°
2026-05-08 18:17 33.02528 -11.53074 35892 ft 550 kts 30°
2026-05-08 18:18 33.08793 -11.47823 35897 ft 550 kts 31°
2026-05-08 18:18 33.15053 -11.42570 35898 ft 550 kts 31°
2026-05-08 18:19 33.21306 -11.37308 35897 ft 549 kts 31°
2026-05-08 18:19 33.27537 -11.32040 35891 ft 549 kts 31°
2026-05-08 18:20 33.33778 -11.26738 35860 ft 550 kts 32°
2026-05-08 18:20 33.40016 -11.21403 35862 ft 551 kts 32°
2026-05-08 18:21 33.46261 -11.16074 35913 ft 552 kts 32°
2026-05-08 18:21 33.52514 -11.10737 35895 ft 552 kts 32°
2026-05-08 18:22 33.58768 -11.05395 35890 ft 552 kts 32°
2026-05-08 18:22 33.65023 -11.00042 35890 ft 552 kts 32°
2026-05-08 18:23 33.71270 -10.94686 35889 ft 552 kts 32°
2026-05-08 18:23 33.77521 -10.89307 35893 ft 553 kts 32°
2026-05-08 18:24 33.83732 -10.83949 35894 ft 553 kts 32°
2026-05-08 18:24 33.89980 -10.78555 35882 ft 553 kts 33°
2026-05-08 18:25 33.96272 -10.73111 35877 ft 553 kts 33°
2026-05-08 18:25 34.02479 -10.67728 35910 ft 553 kts 33°
2026-05-08 18:26 34.08707 -10.62321 35853 ft 551 kts 33°
2026-05-08 18:26 34.14926 -10.56918 35831 ft 551 kts 33°
2026-05-08 18:27 34.20108 -10.52416 35833 ft 552 kts 33°
2026-05-08 18:27 34.27400 -10.46055 35840 ft 554 kts 33°
2026-05-08 18:28 34.33646 -10.40579 35873 ft 554 kts 33°
2026-05-08 18:28 34.39893 -10.35101 35867 ft 554 kts 33°
2026-05-08 18:29 34.46145 -10.29630 35867 ft 555 kts 33°
2026-05-08 18:29 34.52395 -10.24137 35867 ft 555 kts 34°
2026-05-08 18:30 34.58629 -10.18633 35855 ft 554 kts 34°
2026-05-08 18:30 34.64869 -10.13118 35843 ft 555 kts 34°
2026-05-08 18:31 34.71127 -10.07614 35856 ft 555 kts 34°
2026-05-08 18:31 34.77391 -10.02118 35855 ft 556 kts 34°
2026-05-08 18:32 34.83658 -9.96599 35864 ft 556 kts 34°
2026-05-08 18:32 34.89905 -9.91075 35840 ft 553 kts 34°
2026-05-08 18:33 34.96083 -9.85592 35841 ft 553 kts 34°
2026-05-08 18:33 35.02354 -9.80038 35840 ft 556 kts 34°
2026-05-08 18:34 35.08583 -9.74512 35852 ft 557 kts 34°
2026-05-08 18:34 35.14887 -9.68892 35848 ft 556 kts 34°
2026-05-08 18:35 35.21119 -9.63312 35853 ft 556 kts 35°
2026-05-08 18:35 35.27359 -9.57725 35852 ft 556 kts 34°
2026-05-08 18:36 35.33570 -9.52177 35865 ft 556 kts 34°
2026-05-08 18:36 35.39809 -9.46572 35890 ft 557 kts 35°
2026-05-08 18:37 35.46061 -9.40944 35853 ft 557 kts 35°
2026-05-08 18:37 35.52306 -9.35320 35859 ft 557 kts 35°
2026-05-08 18:38 35.58554 -9.29678 35865 ft 558 kts 35°
2026-05-08 18:38 35.64804 -9.24014 35868 ft 558 kts 35°
2026-05-08 18:39 35.71054 -9.18351 35869 ft 558 kts 35°
2026-05-08 18:39 35.77301 -9.12688 35869 ft 558 kts 35°
2026-05-08 18:40 35.83545 -9.06997 35831 ft 558 kts 35°
2026-05-08 18:40 35.89781 -9.01305 35854 ft 558 kts 35°
2026-05-08 18:41 35.96015 -8.95574 35881 ft 558 kts 38°
2026-05-08 18:41 36.01728 -8.89098 35882 ft 558 kts 44°
2026-05-08 18:42 36.06412 -8.83616 35878 ft 558 kts 44°
2026-05-08 18:42 36.12053 -8.77015 35881 ft 558 kts 44°
2026-05-08 18:43 36.17685 -8.70417 35830 ft 558 kts 44°
2026-05-08 18:43 36.23312 -8.63799 35884 ft 558 kts 44°
2026-05-08 18:44 36.28934 -8.57170 35888 ft 557 kts 44°
2026-05-08 18:44 36.34541 -8.50538 35887 ft 557 kts 44°
2026-05-08 18:45 36.40152 -8.43896 35885 ft 557 kts 44°
2026-05-08 18:45 36.45754 -8.37238 35930 ft 557 kts 44°
2026-05-08 18:46 36.48543 -8.33919 35815 ft 556 kts 44°
2026-05-08 18:46 36.51340 -8.30597 35870 ft 556 kts 44°
2026-05-08 18:46 36.56943 -8.23939 35885 ft 557 kts 44°
2026-05-08 18:47 36.62534 -8.17268 35890 ft 557 kts 45°
2026-05-08 18:47 36.68113 -8.10579 35892 ft 557 kts 45°
2026-05-08 18:48 36.73675 -8.03883 35906 ft 556 kts 47°
2026-05-08 18:48 36.78307 -7.96342 35885 ft 548 kts 65°
2026-05-08 18:49 36.81998 -7.87984 35883 ft 547 kts 66°
2026-05-08 18:49 36.85656 -7.79666 35881 ft 547 kts 66°
2026-05-08 18:50 36.89279 -7.71386 35888 ft 547 kts 66°
2026-05-08 18:50 36.92925 -7.63047 35887 ft 547 kts 66°
2026-05-08 18:51 36.96593 -7.54646 35855 ft 547 kts 66°
2026-05-08 18:51 37.00208 -7.46330 35883 ft 548 kts 66°
2026-05-08 18:52 37.04315 -7.38263 35888 ft 554 kts 52°
2026-05-08 18:52 37.09855 -7.31553 35883 ft 555 kts 41°
2026-05-08 18:53 37.15681 -7.25176 35881 ft 556 kts 41°
2026-05-08 18:53 37.21478 -7.18763 35844 ft 556 kts 41°
2026-05-08 18:54 37.27278 -7.12329 35890 ft 556 kts 41°
2026-05-08 18:54 37.33079 -7.05912 35888 ft 556 kts 41°
2026-05-08 18:55 37.41794 -6.96254 35887 ft 556 kts 41°
2026-05-08 18:56 37.47594 -6.89800 35888 ft 556 kts 41°
2026-05-08 18:56 37.53382 -6.83351 35873 ft 556 kts 41°
2026-05-08 18:57 37.59166 -6.76875 35877 ft 556 kts 41°
2026-05-08 18:57 37.64909 -6.70440 35879 ft 556 kts 41°
2026-05-08 18:58 37.70692 -6.63961 35881 ft 556 kts 41°
2026-05-08 18:58 37.76469 -6.57487 35881 ft 556 kts 41°
2026-05-08 18:59 37.82237 -6.50987 35892 ft 555 kts 41°
2026-05-08 18:59 37.87989 -6.44467 35842 ft 554 kts 41°
2026-05-08 19:00 37.93726 -6.37948 35849 ft 555 kts 41°
2026-05-08 19:00 37.99483 -6.31421 35855 ft 555 kts 41°
2026-05-08 19:01 38.05250 -6.24889 35883 ft 555 kts 41°
2026-05-08 19:01 38.10992 -6.18347 35880 ft 554 kts 41°
2026-05-08 19:02 38.16724 -6.11791 35877 ft 554 kts 41°
2026-05-08 19:02 38.22446 -6.05233 35840 ft 554 kts 41°
2026-05-08 19:03 38.28170 -5.98667 35848 ft 554 kts 41°
2026-05-08 19:03 38.33898 -5.92086 35852 ft 554 kts 41°
2026-05-08 19:04 38.39626 -5.85494 35856 ft 555 kts 41°
2026-05-08 19:04 38.45334 -5.78894 35859 ft 555 kts 42°
2026-05-08 19:05 38.51051 -5.72270 35859 ft 555 kts 42°
2026-05-08 19:05 38.56762 -5.65640 35854 ft 554 kts 41°
2026-05-08 19:06 38.62424 -5.59067 35862 ft 554 kts 41°
2026-05-08 19:06 38.68122 -5.52424 35867 ft 554 kts 41°
2026-05-08 19:07 38.73812 -5.45784 35871 ft 553 kts 41°
2026-05-08 19:07 38.79500 -5.39130 35895 ft 553 kts 41°
2026-05-08 19:08 38.85163 -5.32482 35868 ft 552 kts 41°
2026-05-08 19:08 38.90819 -5.25835 35867 ft 551 kts 41°
2026-05-08 19:09 38.96476 -5.19182 35867 ft 551 kts 41°
2026-05-08 19:09 39.01514 -5.11807 35883 ft 549 kts 58°
2026-05-08 19:10 39.05536 -5.03478 35885 ft 548 kts 60°
2026-05-08 19:10 39.09557 -4.95129 34806 ft 555 kts 60°
2026-05-08 19:10 39.11621 -4.90837 33340 ft 572 kts 60°
2026-05-08 19:11 39.13718 -4.86465 32320 ft 573 kts 60°
2026-05-08 19:11 39.15807 -4.82108 31435 ft 569 kts 59°
2026-05-08 19:11 39.17889 -4.77775 30464 ft 567 kts 58°
2026-05-08 19:11 39.20226 -4.73708 29447 ft 564 kts 48°
2026-05-08 19:12 39.22919 -4.70079 28535 ft 556 kts 44°
2026-05-08 19:12 39.25649 -4.66562 27605 ft 551 kts 44°
2026-05-08 19:12 39.28326 -4.63098 26955 ft 541 kts 44°
2026-05-08 19:12 39.30966 -4.59672 26238 ft 534 kts 45°
2026-05-08 19:13 39.33577 -4.56282 25469 ft 529 kts 45°
2026-05-08 19:13 39.36139 -4.52950 24868 ft 519 kts 45°
2026-05-08 19:13 39.38678 -4.49642 24210 ft 514 kts 45°
2026-05-08 19:13 39.41177 -4.46382 23499 ft 510 kts 45°
2026-05-08 19:14 39.43652 -4.43152 22932 ft 501 kts 46°
2026-05-08 19:14 39.46096 -4.39962 22194 ft 497 kts 45°
2026-05-08 19:14 39.48508 -4.36816 21631 ft 490 kts 45°
2026-05-08 19:14 39.50898 -4.33705 21107 ft 483 kts 45°
2026-05-08 19:15 39.53260 -4.30626 20463 ft 479 kts 45°
2026-05-08 19:15 39.55608 -4.27561 19760 ft 478 kts 45°
2026-05-08 19:15 39.57936 -4.24515 19251 ft 472 kts 45°
2026-05-08 19:15 39.60238 -4.21495 18667 ft 469 kts 45°
2026-05-08 19:16 39.62520 -4.18489 18115 ft 465 kts 45°
2026-05-08 19:16 39.64775 -4.15506 17532 ft 461 kts 46°
2026-05-08 19:16 39.67006 -4.12551 16996 ft 456 kts 45°
2026-05-08 19:16 39.69213 -4.09637 16484 ft 451 kts 45°
2026-05-08 19:17 39.71404 -4.06753 16060 ft 444 kts 45°
2026-05-08 19:17 39.73509 -4.03981 15930 ft 430 kts 45°
2026-05-08 19:17 39.75573 -4.01266 15807 ft 416 kts 46°
2026-05-08 19:17 39.77569 -3.98636 15686 ft 403 kts 46°
2026-05-08 19:18 39.79506 -3.96075 15560 ft 391 kts 46°
2026-05-08 19:18 39.81384 -3.93587 15432 ft 379 kts 46°
2026-05-08 19:18 39.83204 -3.91171 15313 ft 369 kts 46°
2026-05-08 19:18 39.84971 -3.88822 15185 ft 359 kts 46°
2026-05-08 19:19 39.86692 -3.86527 15061 ft 349 kts 46°
2026-05-08 19:19 39.88366 -3.84296 14941 ft 340 kts 46°
2026-05-08 19:19 39.90002 -3.82119 14812 ft 332 kts 46°
2026-05-08 19:19 39.91599 -3.80000 14684 ft 323 kts 46°
2026-05-08 19:20 39.93156 -3.77933 14512 ft 317 kts 46°
2026-05-08 19:20 39.93676 -3.77241 14435 ft 316 kts 46°
2026-05-08 19:20 39.96213 -3.73859 14010 ft 312 kts 46°
2026-05-08 19:20 39.97724 -3.71842 13764 ft 310 kts 46°
2026-05-08 19:21 39.99230 -3.69831 13458 ft 309 kts 46°
2026-05-08 19:21 40.00727 -3.67831 13156 ft 307 kts 47°
2026-05-08 19:21 40.02212 -3.65844 12865 ft 305 kts 47°
2026-05-08 19:21 40.03684 -3.63867 12576 ft 303 kts 47°
2026-05-08 19:22 40.05147 -3.61902 12283 ft 301 kts 47°
2026-05-08 19:22 40.06602 -3.59958 12031 ft 297 kts 47°
2026-05-08 19:22 40.08045 -3.58028 11757 ft 295 kts 48°
2026-05-08 19:22 40.09471 -3.56118 11461 ft 294 kts 48°
2026-05-08 19:23 40.10894 -3.54208 11166 ft 292 kts 48°
2026-05-08 19:23 40.12301 -3.52316 10896 ft 289 kts 49°
2026-05-08 19:23 40.13689 -3.50446 10652 ft 285 kts 49°
2026-05-08 19:23 40.15056 -3.48605 10410 ft 281 kts 49°
2026-05-08 19:24 40.16410 -3.46782 10160 ft 276 kts 49°
2026-05-08 19:24 40.17598 -3.44875 10013 ft 265 kts 70°
2026-05-08 19:24 40.17984 -3.42610 9990 ft 252 kts 97°
2026-05-08 19:24 40.17651 -3.40419 9997 ft 243 kts 119°
2026-05-08 19:25 40.16762 -3.38604 9997 ft 234 kts 139°
2026-05-08 19:25 40.15476 -3.37361 9996 ft 228 kts 158°
2026-05-08 19:25 40.13961 -3.36806 9996 ft 226 kts 177°
2026-05-08 19:25 40.12413 -3.36987 9995 ft 225 kts 196°
2026-05-08 19:26 40.11003 -3.37873 9997 ft 227 kts 215°
2026-05-08 19:26 40.09858 -3.39315 9997 ft 231 kts 225°
2026-05-08 19:26 40.08818 -3.40917 9996 ft 231 kts 227°
2026-05-08 19:26 40.07812 -3.42555 9996 ft 232 kts 227°
2026-05-08 19:27 40.06809 -3.44201 10000 ft 231 kts 227°
2026-05-08 19:27 40.05809 -3.45833 9993 ft 230 kts 227°
2026-05-08 19:27 40.04887 -3.47542 9989 ft 233 kts 239°
2026-05-08 19:27 40.04408 -3.49585 9990 ft 241 kts 259°
2026-05-08 19:28 40.04539 -3.51805 9986 ft 252 kts 281°
2026-05-08 19:28 40.05358 -3.53858 9988 ft 262 kts 306°
2026-05-08 19:28 40.06804 -3.55354 9988 ft 271 kts 332°
2026-05-08 19:28 40.08643 -3.55936 9996 ft 276 kts
2026-05-08 19:29 40.09900 -3.55725 10000 ft 276 kts 19°
2026-05-08 19:29 40.11568 -3.54553 9998 ft 272 kts 46°
2026-05-08 19:29 40.12840 -3.52755 10000 ft 270 kts 54°
2026-05-08 19:29 40.14436 -3.50216 10001 ft 270 kts 56°
2026-05-08 19:30 40.15214 -3.48944 10001 ft 270 kts 56°
2026-05-08 19:30 40.16380 -3.47028 10001 ft 270 kts 56°
2026-05-08 19:30 40.17454 -3.45036 9996 ft 265 kts 71°
2026-05-08 19:30 40.17872 -3.42767 9991 ft 253 kts 96°
2026-05-08 19:31 40.17563 -3.40572 10000 ft 242 kts 119°
2026-05-08 19:31 40.16659 -3.38779 9911 ft 233 kts 141°
2026-05-08 19:31 40.15350 -3.37618 9799 ft 226 kts 161°
2026-05-08 19:31 40.13834 -3.37180 9668 ft 223 kts 180°
2026-05-08 19:32 40.12309 -3.37496 9530 ft 223 kts 200°
2026-05-08 19:32 40.10972 -3.38518 9405 ft 227 kts 219°
2026-05-08 19:32 40.09880 -3.40025 9272 ft 230 kts 228°
2026-05-08 19:32 40.09149 -3.41900 9135 ft 237 kts 250°
2026-05-08 19:33 40.09025 -3.44067 9024 ft 245 kts 273°
2026-05-08 19:33 40.09570 -3.46194 8887 ft 253 kts 296°
2026-05-08 19:33 40.10765 -3.47908 8772 ft 261 kts 322°
2026-05-08 19:33 40.12441 -3.48822 8741 ft 265 kts 350°
2026-05-08 19:34 40.14278 -3.48715 8756 ft 267 kts 17°
2026-05-08 19:34 40.15899 -3.47596 8758 ft 263 kts 45°
2026-05-08 19:34 40.17175 -3.45859 8627 ft 268 kts 46°
2026-05-08 19:34 40.18717 -3.44477 8266 ft 271 kts 28°
2026-05-08 19:35 40.20445 -3.43485 7868 ft 273 kts 21°
2026-05-08 19:35 40.22230 -3.42627 7536 ft 271 kts 20°
2026-05-08 19:35 40.24009 -3.41784 7172 ft 271 kts 21°
2026-05-08 19:35 40.25757 -3.40920 6922 ft 267 kts 22°
2026-05-08 19:36 40.27484 -3.40022 6588 ft 266 kts 23°
2026-05-08 19:36 40.29201 -3.39133 6126 ft 269 kts 17°
2026-05-08 19:36 40.31066 -3.38827 5688 ft 269 kts 355°
2026-05-08 19:36 40.32854 -3.39320 5394 ft 256 kts 336°
2026-05-08 19:37 40.34327 -3.40433 5102 ft 242 kts 320°
2026-05-08 19:37 40.35670 -3.41790 4789 ft 239 kts 320°
2026-05-08 19:37 40.36965 -3.43099 4477 ft 237 kts 321°
2026-05-08 19:37 40.38253 -3.44402 4171 ft 230 kts 322°
2026-05-08 19:38 40.39512 -3.45674 3894 ft 225 kts 323°
2026-05-08 19:38 40.40720 -3.46896 3573 ft 214 kts 323°
2026-05-08 19:38 40.41875 -3.48065 3303 ft 205 kts 323°
2026-05-08 19:38 40.42965 -3.49169 3007 ft 191 kts 323°
2026-05-08 19:39 40.43967 -3.50184 2756 ft 173 kts 323°
2026-05-08 19:39 40.44861 -3.51089 2556 ft 155 kts 324°
2026-05-08 19:39 40.45689 -3.51929 2351 ft 148 kts 324°
2026-05-08 19:39 40.46494 -3.52744 2160 ft 145 kts 323°
2026-05-08 19:40 40.47289 -3.53550 1970 ft 144 kts 323°
2026-05-08 19:40 40.48034 -3.54302 1932 ft 115 kts 321°
2026-05-08 19:40 40.48544 -3.54811 1942 ft 72 kts 322°
2026-05-08 19:40 40.48862 -3.55142 1953 ft 46 kts 322°
2026-05-08 19:41 40.49069 -3.55357 1954 ft 36 kts 319°
2026-05-08 19:41 40.49197 -3.55553 1958 ft 18 kts 296°
2026-05-08 19:41 40.49245 -3.55701 1963 ft 17 kts 289°
2026-05-08 19:41 40.49292 -3.55854 1962 ft 19 kts 289°
2026-05-08 19:42 40.49300 -3.56035 1959 ft 21 kts 270°
2026-05-08 19:42 40.49219 -3.56134 1962 ft 18 kts 158°
2026-05-08 19:42 40.49094 -3.56137 1959 ft 19 kts 182°
2026-05-08 19:42 40.48959 -3.56142 1959 ft 20 kts 180°
2026-05-08 19:43 40.48840 -3.56139 1959 ft 17 kts 179°
2026-05-08 19:43 40.48769 -3.56221 1961 ft 14 kts 267°
2026-05-08 19:43 40.48770 -3.56333 1964 ft 10 kts 270°
2026-05-08 19:43 40.48770 -3.56406 1966 ft 6 kts 268°
2026-05-08 19:44 40.48768 -3.56509 1973 ft 13 kts 269°
2026-05-08 19:44 40.48767 -3.56614 1974 ft 9 kts 270°
2026-05-08 19:44 40.48767 -3.56723 1976 ft 15 kts 270°
2026-05-08 19:44 40.48767 -3.56857 1980 ft 14 kts 270°
2026-05-08 19:45 40.48767 -3.56976 1981 ft 12 kts 270°
2026-05-08 19:45 40.48767 -3.57075 1983 ft 14 kts 270°
2026-05-08 19:45 40.48768 -3.57215 1983 ft 15 kts 270°
2026-05-08 19:45 40.48767 -3.57349 1986 ft 14 kts 269°
2026-05-08 19:46 40.48766 -3.57472 1991 ft 12 kts 269°
2026-05-08 19:46 40.48765 -3.57604 1991 ft 18 kts 269°
2026-05-08 19:46 40.48763 -3.57921 1998 ft 16 kts 270°
2026-05-08 19:47 40.48732 -3.58034 2002 ft 12 kts 218°
2026-05-08 19:47 40.48664 -3.58047 2003 ft 9 kts 182°
2026-05-08 19:47 40.48606 -3.58097 2004 ft 18 kts 259°
2026-05-08 19:47 40.48598 -3.58244 2010 ft 12 kts 268°
2026-05-08 19:48 40.48596 -3.58329 2010 ft 7 kts 269°
2026-05-08 19:48 40.48595 -3.58409 2012 ft 14 kts 270°
2026-05-08 19:48 40.48595 -3.58515 2016 ft 9 kts 270°
2026-05-08 19:48 40.48595 -3.58589 2027 ft 12 kts 270°
2026-05-08 19:49 40.48595 -3.58709 2030 ft 13 kts 270°
2026-05-08 19:49 40.48633 -3.58803 2025 ft 12 kts 338°
2026-05-08 19:49 40.48718 -3.58811 2032 ft 13 kts 349°
2026-05-08 19:49 40.48790 -3.58875 2022 ft 13 kts 352°
2026-05-08 19:50 40.48863 -3.58877 2022 ft 5 kts
2026-05-08 19:50 40.48909 -3.58877 2026 ft 8 kts 357°
2026-05-08 19:50 40.48969 -3.58880 2030 ft 10 kts 359°
2026-05-08 19:50 40.49051 -3.58881 2025 ft 11 kts 360°
2026-05-08 19:51 40.49061 -3.58881 2026 ft 2 kts
2026-05-08 19:51 40.49082 -3.58880 2022 ft 0 kts
2026-05-08 19:51 40.49091 -3.58880 2022 ft 3 kts
2026-05-08 19:51 40.49109 -3.58889 2030 ft 3 kts 316°
2026-05-08 19:52 40.49118 -3.58922 2028 ft 5 kts 275°
2026-05-08 19:52 40.49119 -3.58934 2022 ft 2 kts 275°
2026-05-08 19:52 40.49119 -3.58965 2024 ft 5 kts 270°
2026-05-08 19:52 40.49119 -3.58967 2024 ft 0 kts 270°
2026-05-08 19:53 40.49119 -3.58965 2024 ft 0 kts 270°
2026-05-08 19:53 40.49119 -3.58966 2024 ft 0 kts 270°